Time,TemperatureF,DewpointF,PressureIn,WindDirection,WindDirectionDegrees,WindSpeedMPH,WindSpeedGustMPH,Humidity,HourlyPrecipIn,Conditions,Clouds,dailyrainin,SoftwareType,DateUTC
2013-11-20 00:02:00,46.8,28.7,30.18,ESE,104,0.0,2.0,49,0.00,,SKC,0.00,VWS V14.01,2013-11-20 05:02:00,
2013-11-20 00:12:00,46.5,30.8,30.18,ENE,77,0.0,1.0,54,0.00,,SKC,0.00,VWS V14.01,2013-11-20 05:12:00,
2013-11-20 00:17:00,46.4,28.8,30.18,ENE,66,0.0,4.0,50,0.00,,SKC,0.00,VWS V14.01,2013-11-20 05:17:00,
2013-11-20 00:22:00,46.3,28.7,30.19,East,92,0.0,6.0,50,0.00,,SKC,0.00,VWS V14.01,2013-11-20 05:22:00,
2013-11-20 00:27:00,46.1,28.0,30.19,ENE,75,0.0,2.0,49,0.00,,SKC,0.00,VWS V14.01,2013-11-20 05:27:00,
2013-11-20 00:31:00,46.0,28.4,30.19,ENE,74,1.0,1.0,50,0.00,,SKC,0.00,VWS V14.01,2013-11-20 05:31:00,
2013-11-20 00:36:00,45.8,28.2,30.19,East,90,0.0,1.0,50,0.00,,SKC,0.00,VWS V14.01,2013-11-20 05:36:00,
2013-11-20 01:52:00,44.0,28.9,30.19,East,90,1.0,8.0,55,0.00,,SKC,0.00,VWS V14.01,2013-11-20 06:52:00,
2013-11-20 01:57:00,43.8,28.7,30.19,NNW,342,0.0,1.0,55,0.00,,SKC,0.00,VWS V14.01,2013-11-20 06:57:00,
2013-11-20 02:02:00,43.7,28.6,30.19,East,94,0.0,3.0,55,0.00,,SKC,0.00,VWS V14.01,2013-11-20 07:02:00,
2013-11-20 02:07:00,43.5,28.9,30.20,ESE,117,3.0,3.0,56,0.00,,SKC,0.00,VWS V14.01,2013-11-20 07:07:00,
2013-11-20 02:12:00,43.4,28.8,30.20,ENE,78,0.0,0.0,56,0.00,,SKC,0.00,VWS V14.01,2013-11-20 07:12:00,
2013-11-20 02:17:00,43.5,28.9,30.20,ESE,107,0.0,0.0,56,0.00,,SKC,0.00,VWS V14.01,2013-11-20 07:17:00,
2013-11-20 02:22:00,43.2,28.6,30.20,East,98,0.0,2.0,56,0.00,,SKC,0.00,VWS V14.01,2013-11-20 07:22:00,
2013-11-20 02:27:00,43.1,28.5,30.20,East,83,0.0,0.0,56,0.00,,SKC,0.00,VWS V14.01,2013-11-20 07:27:00,
2013-11-20 02:32:00,43.1,28.5,30.20,ESE,111,0.0,1.0,56,0.00,,SKC,0.00,VWS V14.01,2013-11-20 07:32:00,
2013-11-20 02:37:00,43.0,28.8,30.20,East,89,0.0,0.0,57,0.00,,SKC,0.00,VWS V14.01,2013-11-20 07:37:00,
2013-11-20 02:42:00,43.0,28.8,30.20,ENE,77,2.0,4.0,57,0.00,,SKC,0.00,VWS V14.01,2013-11-20 07:42:00,
2013-11-20 02:47:00,42.9,29.2,30.20,ENE,78,0.0,1.0,58,0.00,,SKC,0.00,VWS V14.01,2013-11-20 07:47:00,
2013-11-20 02:52:00,42.7,29.0,30.20,ESE,117,3.0,5.0,58,0.00,,SKC,0.00,VWS V14.01,2013-11-20 07:52:00,
2013-11-20 02:57:00,42.6,28.9,30.20,East,87,6.0,6.0,58,0.00,,SKC,0.00,VWS V14.01,2013-11-20 07:57:00,
2013-11-20 03:02:00,42.7,29.0,30.20,ESE,123,3.0,3.0,58,0.00,,SKC,0.00,VWS V14.01,2013-11-20 08:02:00,
2013-11-20 03:07:00,42.6,28.9,30.21,East,98,4.0,4.0,58,0.00,,SKC,0.00,VWS V14.01,2013-11-20 08:07:00,
2013-11-20 03:12:00,42.6,28.9,30.21,East,91,1.0,1.0,58,0.00,,SKC,0.00,VWS V14.01,2013-11-20 08:12:00,
2013-11-20 03:17:00,42.5,28.8,30.21,ESE,105,0.0,1.0,58,0.00,,SKC,0.00,VWS V14.01,2013-11-20 08:17:00,
2013-11-20 03:22:00,42.5,28.4,30.21,ENE,60,5.0,6.0,57,0.00,,SKC,0.00,VWS V14.01,2013-11-20 08:22:00,
2013-11-20 03:27:00,42.5,28.8,30.21,ESE,104,5.0,6.0,58,0.00,,SKC,0.00,VWS V14.01,2013-11-20 08:27:00,
2013-11-20 03:32:00,42.4,28.7,30.21,East,93,4.0,4.0,58,0.00,,SKC,0.00,VWS V14.01,2013-11-20 08:32:00,
2013-11-20 03:37:00,42.3,29.0,30.21,NNE,22,0.0,2.0,59,0.00,,SKC,0.00,VWS V14.01,2013-11-20 08:37:00,
2013-11-20 03:42:00,42.1,28.4,30.21,ESE,103,3.0,3.0,58,0.00,,SKC,0.00,VWS V14.01,2013-11-20 08:42:00,
2013-11-20 03:47:00,42.0,28.7,30.21,East,82,0.0,0.0,59,0.00,,SKC,0.00,VWS V14.01,2013-11-20 08:47:00,
2013-11-20 03:52:00,41.9,28.6,30.22,ENE,61,4.0,5.0,59,0.00,,SKC,0.00,VWS V14.01,2013-11-20 08:52:00,
2013-11-20 03:57:00,41.9,28.6,30.21,NNE,14,0.0,0.0,59,0.00,,SKC,0.00,VWS V14.01,2013-11-20 08:57:00,
2013-11-20 04:02:00,41.9,29.0,30.22,East,89,1.0,5.0,60,0.00,,SKC,0.00,VWS V14.01,2013-11-20 09:02:00,
2013-11-20 04:07:00,41.9,28.6,30.22,ESE,108,3.0,4.0,59,0.00,,SKC,0.00,VWS V14.01,2013-11-20 09:07:00,
2013-11-20 04:12:00,41.9,28.6,30.22,ENE,75,1.0,8.0,59,0.00,,SKC,0.00,VWS V14.01,2013-11-20 09:12:00,
2013-11-20 04:17:00,42.0,29.1,30.22,East,79,1.0,1.0,60,0.00,,SKC,0.00,VWS V14.01,2013-11-20 09:17:00,
2013-11-20 04:22:00,41.9,29.0,30.23,NNE,13,1.0,1.0,60,0.00,,SKC,0.00,VWS V14.01,2013-11-20 09:22:00,
2013-11-20 04:27:00,41.9,29.0,30.23,ESE,109,2.0,3.0,60,0.00,,SKC,0.00,VWS V14.01,2013-11-20 09:27:00,
2013-11-20 04:32:00,41.9,29.0,30.23,ENE,68,1.0,4.0,60,0.00,,SKC,0.00,VWS V14.01,2013-11-20 09:32:00,
2013-11-20 04:37:00,41.8,29.4,30.23,NNE,30,0.0,0.0,61,0.00,,SKC,0.00,VWS V14.01,2013-11-20 09:37:00,
2013-11-20 04:42:00,41.8,29.4,30.23,ENE,61,0.0,12.0,61,0.00,,SKC,0.00,VWS V14.01,2013-11-20 09:42:00,
2013-11-20 04:47:00,41.7,29.3,30.23,WSW,256,0.0,0.0,61,0.00,,SKC,0.00,VWS V14.01,2013-11-20 09:47:00,
2013-11-20 04:52:00,41.6,29.2,30.23,East,84,0.0,1.0,61,0.00,,SKC,0.00,VWS V14.01,2013-11-20 09:52:00,
2013-11-20 04:57:00,41.6,29.6,30.23,ENE,72,1.0,4.0,62,0.00,,SKC,0.00,VWS V14.01,2013-11-20 09:57:00,
2013-11-20 05:02:00,41.6,29.6,30.23,SSW,195,0.0,0.0,62,0.00,,SKC,0.00,VWS V14.01,2013-11-20 10:02:00,
2013-11-20 05:07:00,41.6,29.2,30.24,North,358,1.0,1.0,61,0.00,,SKC,0.00,VWS V14.01,2013-11-20 10:07:00,
2013-11-20 05:12:00,41.5,29.5,30.24,NNW,335,1.0,3.0,62,0.00,,SKC,0.00,VWS V14.01,2013-11-20 10:12:00,
2013-11-20 05:17:00,41.4,29.4,30.24,ENE,68,2.0,2.0,62,0.00,,SKC,0.00,VWS V14.01,2013-11-20 10:17:00,
2013-11-20 05:22:00,41.6,29.6,30.24,NNW,344,1.0,3.0,62,0.00,,SKC,0.00,VWS V14.01,2013-11-20 10:22:00,
2013-11-20 05:27:00,41.6,29.6,30.24,ESE,105,3.0,5.0,62,0.00,,SKC,0.00,VWS V14.01,2013-11-20 10:27:00,
2013-11-20 05:32:00,41.6,29.6,30.24,ENE,66,1.0,1.0,62,0.00,,SKC,0.00,VWS V14.01,2013-11-20 10:32:00,
2013-11-20 05:37:00,41.8,29.8,30.25,East,87,0.0,1.0,62,0.00,,SKC,0.00,VWS V14.01,2013-11-20 10:37:00,
2013-11-20 05:42:00,41.7,30.0,30.25,NNW,333,1.0,1.0,63,0.00,,SKC,0.00,VWS V14.01,2013-11-20 10:42:00,
2013-11-20 05:47:00,41.6,30.0,30.25,ENE,63,0.0,1.0,63,0.00,,SKC,0.00,VWS V14.01,2013-11-20 10:47:00,
2013-11-20 05:52:00,41.5,29.9,30.25,East,79,2.0,2.0,63,0.00,,SKC,0.00,VWS V14.01,2013-11-20 10:52:00,
2013-11-20 05:57:00,41.5,29.9,30.25,SSE,150,0.0,0.0,63,0.00,,SKC,0.00,VWS V14.01,2013-11-20 10:57:00,
2013-11-20 06:02:00,41.4,30.1,30.25,ESE,122,3.0,3.0,64,0.00,,SKC,0.00,VWS V14.01,2013-11-20 11:02:00,
2013-11-20 06:07:00,41.3,30.1,30.25,NE,53,5.0,8.0,64,0.00,,SKC,0.00,VWS V14.01,2013-11-20 11:07:00,
2013-11-20 06:12:00,41.4,30.1,30.25,ENE,64,4.0,6.0,64,0.00,,SKC,0.00,VWS V14.01,2013-11-20 11:12:00,
2013-11-20 06:17:00,41.3,30.1,30.26,East,92,0.0,0.0,64,0.00,,SKC,0.00,VWS V14.01,2013-11-20 11:17:00,
2013-11-20 06:22:00,41.2,30.3,30.26,ENE,77,4.0,4.0,65,0.00,,SKC,0.00,VWS V14.01,2013-11-20 11:22:00,
2013-11-20 06:27:00,41.2,30.3,30.26,ENE,72,2.0,8.0,65,0.00,,SKC,0.00,VWS V14.01,2013-11-20 11:27:00,
2013-11-20 06:32:00,41.1,30.2,30.26,ENE,58,0.0,1.0,65,0.00,,SKC,0.00,VWS V14.01,2013-11-20 11:32:00,
2013-11-20 06:37:00,41.0,30.5,30.26,East,94,3.0,3.0,66,0.00,,SKC,0.00,VWS V14.01,2013-11-20 11:37:00,
2013-11-20 06:42:00,40.9,30.4,30.27,NNE,23,3.0,3.0,66,0.00,,SKC,0.00,VWS V14.01,2013-11-20 11:42:00,
2013-11-20 06:47:00,40.9,30.4,30.27,East,98,2.0,4.0,66,0.00,,SKC,0.00,VWS V14.01,2013-11-20 11:47:00,
2013-11-20 06:52:00,40.8,30.3,30.27,ESE,117,9.0,9.0,66,0.00,,SKC,0.00,VWS V14.01,2013-11-20 11:52:00,
2013-11-20 06:57:00,40.7,30.2,30.27,East,93,0.0,1.0,66,0.00,,SKC,0.00,VWS V14.01,2013-11-20 11:57:00,
2013-11-20 07:02:00,40.7,30.6,30.27,ESE,105,2.0,6.0,67,0.00,,SKC,0.00,VWS V14.01,2013-11-20 12:02:00,
2013-11-20 07:07:00,40.7,30.6,30.28,NE,53,1.0,1.0,67,0.00,,SKC,0.00,VWS V14.01,2013-11-20 12:07:00,
2013-11-20 07:12:00,40.6,30.5,30.27,ESE,118,2.0,2.0,67,0.00,,SKC,0.00,VWS V14.01,2013-11-20 12:12:00,
2013-11-20 07:17:00,40.4,30.3,30.27,ENE,74,1.0,1.0,67,0.00,,SKC,0.00,VWS V14.01,2013-11-20 12:17:00,
2013-11-20 07:22:00,40.3,30.6,30.28,East,87,1.0,2.0,68,0.00,,SKC,0.00,VWS V14.01,2013-11-20 12:22:00,
2013-11-20 07:27:00,40.3,30.6,30.28,ESE,115,1.0,3.0,68,0.00,,SKC,0.00,VWS V14.01,2013-11-20 12:27:00,
2013-11-20 07:32:00,40.4,30.7,30.29,North,356,1.0,1.0,68,0.00,,SKC,0.00,VWS V14.01,2013-11-20 12:32:00,
2013-11-20 07:37:00,40.5,30.8,30.29,SE,134,1.0,4.0,68,0.00,,SKC,0.00,VWS V14.01,2013-11-20 12:37:00,
2013-11-20 07:42:00,40.6,30.9,30.29,NE,44,0.0,0.0,68,0.00,,SKC,0.00,VWS V14.01,2013-11-20 12:42:00,
2013-11-20 07:47:00,40.7,31.0,30.29,ENE,75,2.0,2.0,68,0.00,,SKC,0.00,VWS V14.01,2013-11-20 12:47:00,
2013-11-20 07:52:00,40.7,31.0,30.29,ESE,103,1.0,1.0,68,0.00,,SKC,0.00,VWS V14.01,2013-11-20 12:52:00,
2013-11-20 07:57:00,41.0,30.9,30.29,ENE,71,5.0,5.0,67,0.00,,SKC,0.00,VWS V14.01,2013-11-20 12:57:00,
2013-11-20 08:02:00,41.2,31.1,30.29,East,91,4.0,10.0,67,0.00,,SKC,0.00,VWS V14.01,2013-11-20 13:02:00,
2013-11-20 08:07:00,41.5,31.0,30.29,NE,47,6.0,6.0,66,0.00,,SKC,0.00,VWS V14.01,2013-11-20 13:07:00,
2013-11-20 08:12:00,41.7,31.2,30.30,East,96,1.0,10.0,66,0.00,,SKC,0.00,VWS V14.01,2013-11-20 13:12:00,
2013-11-20 08:17:00,41.8,31.3,30.30,NW,318,3.0,3.0,66,0.00,,SKC,0.00,VWS V14.01,2013-11-20 13:17:00,
2013-11-20 08:22:00,42.0,31.5,30.30,ENE,70,2.0,2.0,66,0.00,,SKC,0.00,VWS V14.01,2013-11-20 13:22:00,
2013-11-20 08:27:00,42.2,31.7,30.30,ESE,108,5.0,5.0,66,0.00,,SKC,0.00,VWS V14.01,2013-11-20 13:27:00,
2013-11-20 08:32:00,42.4,31.5,30.30,NE,46,3.0,3.0,65,0.00,,SKC,0.00,VWS V14.01,2013-11-20 13:32:00,
2013-11-20 08:37:00,42.6,31.7,30.31,East,98,8.0,11.0,65,0.00,,SKC,0.00,VWS V14.01,2013-11-20 13:37:00,
2013-11-20 08:42:00,42.9,31.6,30.31,East,98,0.0,10.0,64,0.00,,SKC,0.00,VWS V14.01,2013-11-20 13:42:00,
2013-11-20 08:47:00,43.2,31.9,30.31,East,98,4.0,11.0,64,0.00,,SKC,0.00,VWS V14.01,2013-11-20 13:47:00,
2013-11-20 08:52:00,43.4,31.7,30.31,ENE,63,2.0,10.0,63,0.00,,SKC,0.00,VWS V14.01,2013-11-20 13:52:00,
2013-11-20 08:57:00,43.7,31.5,30.32,ENE,58,2.0,10.0,62,0.00,,SKC,0.00,VWS V14.01,2013-11-20 13:57:00,
2013-11-20 09:02:00,43.9,31.7,30.32,SSE,163,4.0,7.0,62,0.00,,SKC,0.00,VWS V14.01,2013-11-20 14:02:00,
2013-11-20 09:07:00,44.1,31.5,30.32,East,83,0.0,7.0,61,0.00,,SKC,0.00,VWS V14.01,2013-11-20 14:07:00,
2013-11-20 09:12:00,44.3,31.7,30.33,NE,53,6.0,6.0,61,0.00,,SKC,0.00,VWS V14.01,2013-11-20 14:12:00,
2013-11-20 09:17:00,44.5,31.9,30.33,East,101,4.0,9.0,61,0.00,,SKC,0.00,VWS V14.01,2013-11-20 14:17:00,
2013-11-20 09:22:00,44.8,32.2,30.32,ENE,78,8.0,13.0,61,0.00,,SKC,0.00,VWS V14.01,2013-11-20 14:22:00,
2013-11-20 09:27:00,44.8,31.8,30.33,NE,46,6.0,10.0,60,0.00,,SKC,0.00,VWS V14.01,2013-11-20 14:27:00,
2013-11-20 09:32:00,45.2,32.6,30.33,NE,56,4.0,6.0,61,0.00,,SKC,0.00,VWS V14.01,2013-11-20 14:32:00,
2013-11-20 09:37:00,45.3,31.8,30.33,ESE,106,12.0,15.0,59,0.00,,SKC,0.00,VWS V14.01,2013-11-20 14:37:00,
2013-11-20 09:42:00,45.4,31.9,30.33,ESE,115,9.0,13.0,59,0.00,,SKC,0.00,VWS V14.01,2013-11-20 14:42:00,
2013-11-20 09:47:00,45.5,32.0,30.33,East,85,1.0,16.0,59,0.00,,SKC,0.00,VWS V14.01,2013-11-20 14:47:00,
2013-11-20 09:52:00,45.9,32.4,30.32,WNW,288,1.0,12.0,59,0.00,,SKC,0.00,VWS V14.01,2013-11-20 14:52:00,
2013-11-20 09:57:00,46.2,32.7,30.32,NNE,26,2.0,9.0,59,0.00,,SKC,0.00,VWS V14.01,2013-11-20 14:57:00,
2013-11-20 10:02:00,46.5,32.5,30.33,WSW,240,0.0,12.0,58,0.00,,SKC,0.00,VWS V14.01,2013-11-20 15:02:00,
2013-11-20 10:07:00,46.7,31.9,30.33,SE,128,3.0,12.0,56,0.00,,SKC,0.00,VWS V14.01,2013-11-20 15:07:00,
2013-11-20 10:12:00,47.0,32.6,30.32,ENE,75,2.0,14.0,57,0.00,,SKC,0.00,VWS V14.01,2013-11-20 15:12:00,
2013-11-20 10:17:00,47.5,33.0,30.32,ENE,63,3.0,14.0,57,0.00,,SKC,0.00,VWS V14.01,2013-11-20 15:17:00,
2013-11-20 10:22:00,47.9,32.5,30.32,SE,124,3.0,16.0,55,0.00,,SKC,0.00,VWS V14.01,2013-11-20 15:22:00,
2013-11-20 10:27:00,47.7,32.3,30.33,NNW,343,6.0,12.0,55,0.00,,SKC,0.00,VWS V14.01,2013-11-20 15:27:00,
2013-11-20 10:32:00,48.0,32.6,30.33,NNE,30,3.0,8.0,55,0.00,,SKC,0.00,VWS V14.01,2013-11-20 15:32:00,
2013-11-20 10:37:00,47.7,32.8,30.33,ENE,71,0.0,14.0,56,0.00,,SKC,0.00,VWS V14.01,2013-11-20 15:37:00,
2013-11-20 10:42:00,48.3,33.3,30.33,SE,132,1.0,4.0,56,0.00,,SKC,0.00,VWS V14.01,2013-11-20 15:42:00,
2013-11-20 10:47:00,48.7,33.3,30.32,NE,48,2.0,9.0,55,0.00,,SKC,0.00,VWS V14.01,2013-11-20 15:47:00,
2013-11-20 10:52:00,49.0,33.1,30.32,NNE,16,2.0,9.0,54,0.00,,SKC,0.00,VWS V14.01,2013-11-20 15:52:00,
2013-11-20 10:57:00,49.2,32.8,30.32,North,5,2.0,8.0,53,0.00,,SKC,0.00,VWS V14.01,2013-11-20 15:57:00,
2013-11-20 11:02:00,49.8,33.4,30.32,ENE,68,8.0,8.0,53,0.00,,SCT045,0.00,VWS V14.01,2013-11-20 16:02:00,
2013-11-20 11:07:00,50.2,33.3,30.32,ESE,121,3.0,12.0,52,0.00,,SCT045,0.00,VWS V14.01,2013-11-20 16:07:00,
2013-11-20 11:12:00,50.4,33.0,30.32,ESE,104,2.0,7.0,51,0.00,,SCT045,0.00,VWS V14.01,2013-11-20 16:12:00,
2013-11-20 11:17:00,50.6,32.7,30.32,ENE,76,2.0,10.0,50,0.00,,SCT045,0.00,VWS V14.01,2013-11-20 16:17:00,
2013-11-20 11:22:00,50.5,33.1,30.32,ENE,69,2.0,13.0,51,0.00,,SCT045,0.00,VWS V14.01,2013-11-20 16:22:00,
2013-11-20 11:27:00,50.6,33.6,30.32,East,95,0.0,11.0,52,0.00,,SCT045,0.00,VWS V14.01,2013-11-20 16:27:00,
2013-11-20 11:32:00,50.8,32.8,30.32,ESE,117,4.0,9.0,50,0.00,,SCT045,0.00,VWS V14.01,2013-11-20 16:32:00,
2013-11-20 11:37:00,50.6,32.7,30.31,SSE,165,3.0,11.0,50,0.00,,SCT045,0.00,VWS V14.01,2013-11-20 16:37:00,
2013-11-20 11:42:00,50.7,33.7,30.31,NW,316,1.0,5.0,52,0.00,,SCT045,0.00,VWS V14.01,2013-11-20 16:42:00,
2013-11-20 11:47:00,51.3,33.3,30.31,SE,143,0.0,6.0,50,0.00,,SCT045,0.00,VWS V14.01,2013-11-20 16:47:00,
2013-11-20 11:52:00,51.6,33.6,30.31,WNW,285,0.0,6.0,50,0.00,,SCT045,0.00,VWS V14.01,2013-11-20 16:52:00,
2013-11-20 11:57:00,52.1,34.0,30.31,NE,37,3.0,5.0,50,0.00,,SCT045,0.00,VWS V14.01,2013-11-20 16:57:00,
2013-11-20 12:02:00,52.1,33.0,30.30,North,349,3.0,8.0,48,0.00,,BKN045,0.00,VWS V14.01,2013-11-20 17:02:00,
2013-11-20 12:07:00,52.0,33.5,30.30,NNE,16,2.0,8.0,49,0.00,,BKN045,0.00,VWS V14.01,2013-11-20 17:07:00,
2013-11-20 12:12:00,52.3,33.7,30.30,NE,37,1.0,7.0,49,0.00,,BKN045,0.00,VWS V14.01,2013-11-20 17:12:00,
2013-11-20 12:17:00,52.6,33.5,30.30,SSE,158,0.0,8.0,48,0.00,,BKN045,0.00,VWS V14.01,2013-11-20 17:17:00,
2013-11-20 12:22:00,52.8,33.2,30.30,ESE,122,4.0,10.0,47,0.00,,BKN045,0.00,VWS V14.01,2013-11-20 17:22:00,
2013-11-20 12:27:00,52.6,33.5,30.30,NE,35,3.0,7.0,48,0.00,,BKN045,0.00,VWS V14.01,2013-11-20 17:27:00,
2013-11-20 12:32:00,52.2,34.1,30.30,NE,37,1.0,6.0,50,0.00,,BKN045,0.00,VWS V14.01,2013-11-20 17:32:00,
2013-11-20 12:37:00,52.7,34.1,30.29,East,86,1.0,6.0,49,0.00,,BKN045,0.00,VWS V14.01,2013-11-20 17:37:00,
2013-11-20 12:42:00,52.9,34.3,30.29,NE,42,3.0,6.0,49,0.00,,BKN045,0.00,VWS V14.01,2013-11-20 17:42:00,
2013-11-20 12:47:00,53.2,33.0,30.29,East,89,1.0,7.0,46,0.00,,BKN045,0.00,VWS V14.01,2013-11-20 17:47:00,
2013-11-20 12:52:00,53.4,33.7,30.29,ESE,115,2.0,8.0,47,0.00,,BKN045,0.00,VWS V14.01,2013-11-20 17:52:00,
2013-11-20 12:56:00,53.6,33.9,30.28,ENE,69,4.0,11.0,47,0.00,,BKN045,0.00,VWS V14.01,2013-11-20 17:56:00,
2013-11-20 13:01:00,54.1,33.8,30.28,North,359,6.0,8.0,46,0.00,,SCT050,0.00,VWS V14.01,2013-11-20 18:01:00,
2013-11-20 13:06:00,53.6,32.8,30.28,South,174,2.0,8.0,45,0.00,,SCT050,0.00,VWS V14.01,2013-11-20 18:06:00,
2013-11-20 13:11:00,53.4,33.2,30.28,East,82,2.0,6.0,46,0.00,,SCT050,0.00,VWS V14.01,2013-11-20 18:11:00,
2013-11-20 13:16:00,53.9,33.1,30.28,ESE,112,0.0,8.0,45,0.00,,SCT050,0.00,VWS V14.01,2013-11-20 18:16:00,
2013-11-20 13:21:00,53.7,33.4,30.28,NNW,330,1.0,9.0,46,0.00,,SCT050,0.00,VWS V14.01,2013-11-20 18:21:00,
2013-11-20 13:26:00,53.3,32.5,30.27,ESE,108,2.0,10.0,45,0.00,,SCT050,0.00,VWS V14.01,2013-11-20 18:26:00,
2013-11-20 13:31:00,53.3,33.6,30.27,East,84,2.0,6.0,47,0.00,,SCT050,0.00,VWS V14.01,2013-11-20 18:31:00,
2013-11-20 13:36:00,53.8,35.1,30.27,NE,50,3.0,7.0,49,0.00,,SCT050,0.00,VWS V14.01,2013-11-20 18:36:00,
2013-11-20 13:41:00,53.9,33.6,30.26,North,353,1.0,4.0,46,0.00,,SCT050,0.00,VWS V14.01,2013-11-20 18:41:00,
2013-11-20 13:46:00,53.6,33.3,30.26,East,82,6.0,10.0,46,0.00,,SCT050,0.00,VWS V14.01,2013-11-20 18:46:00,
2013-11-20 13:51:00,53.6,33.3,30.26,ESE,115,3.0,6.0,46,0.00,,SCT050,0.00,VWS V14.01,2013-11-20 18:51:00,
2013-11-20 13:56:00,53.6,33.9,30.26,ESE,105,8.0,8.0,47,0.00,,SCT050,0.00,VWS V14.01,2013-11-20 18:56:00,
2013-11-20 14:01:00,53.7,34.0,30.26,East,84,1.0,9.0,47,0.00,,SCT047,0.00,VWS V14.01,2013-11-20 19:01:00,
2013-11-20 14:06:00,54.9,35.1,30.26,SSE,166,3.0,3.0,47,0.00,,SCT047,0.00,VWS V14.01,2013-11-20 19:06:00,
2013-11-20 14:11:00,54.8,33.3,30.26,ENE,65,0.0,10.0,44,0.00,,SCT047,0.00,VWS V14.01,2013-11-20 19:11:00,
2013-11-20 14:16:00,54.9,34.5,30.25,ENE,64,2.0,4.0,46,0.00,,SCT047,0.00,VWS V14.01,2013-11-20 19:16:00,
2013-11-20 14:21:00,55.1,33.6,30.25,ENE,73,2.0,12.0,44,0.00,,SCT047,0.00,VWS V14.01,2013-11-20 19:21:00,
2013-11-20 14:26:00,55.0,33.5,30.25,SE,127,5.0,7.0,44,0.00,,SCT047,0.00,VWS V14.01,2013-11-20 19:26:00,
2013-11-20 14:31:00,54.8,34.4,30.25,SE,127,0.0,10.0,46,0.00,,SCT047,0.00,VWS V14.01,2013-11-20 19:31:00,
2013-11-20 14:36:00,54.9,34.5,30.25,ENE,70,0.0,13.0,46,0.00,,SCT047,0.00,VWS V14.01,2013-11-20 19:36:00,
2013-11-20 14:41:00,55.1,34.2,30.25,South,183,0.0,5.0,45,0.00,,SCT047,0.00,VWS V14.01,2013-11-20 19:41:00,
2013-11-20 14:46:00,55.3,33.8,30.25,East,91,5.0,7.0,44,0.00,,SCT047,0.00,VWS V14.01,2013-11-20 19:46:00,
2013-11-20 14:51:00,55.0,34.1,30.24,NE,50,1.0,11.0,45,0.00,,SCT047,0.00,VWS V14.01,2013-11-20 19:51:00,
2013-11-20 14:56:00,54.9,34.0,30.24,North,359,1.0,5.0,45,0.00,,SCT047,0.00,VWS V14.01,2013-11-20 19:56:00,
2013-11-20 15:01:00,54.6,33.7,30.25,NE,37,1.0,6.0,45,0.00,,FEW120,0.00,VWS V14.01,2013-11-20 20:01:00,
2013-11-20 15:06:00,54.8,34.4,30.24,NNE,29,2.0,9.0,46,0.00,,FEW120,0.00,VWS V14.01,2013-11-20 20:06:00,
2013-11-20 15:11:00,55.0,34.1,30.24,SE,138,1.0,9.0,45,0.00,,FEW120,0.00,VWS V14.01,2013-11-20 20:11:00,
2013-11-20 15:16:00,55.1,34.7,30.24,NE,41,4.0,6.0,46,0.00,,FEW120,0.00,VWS V14.01,2013-11-20 20:16:00,
2013-11-20 15:21:00,54.8,34.4,30.24,ESE,118,1.0,6.0,46,0.00,,FEW120,0.00,VWS V14.01,2013-11-20 20:21:00,
2013-11-20 15:26:00,54.9,34.5,30.24,ESE,108,0.0,4.0,46,0.00,,FEW120,0.00,VWS V14.01,2013-11-20 20:26:00,
2013-11-20 15:31:00,54.5,34.7,30.24,ENE,65,2.0,6.0,47,0.00,,FEW120,0.00,VWS V14.01,2013-11-20 20:31:00,
2013-11-20 15:36:00,54.4,35.7,30.24,NE,43,1.0,6.0,49,0.00,,FEW120,0.00,VWS V14.01,2013-11-20 20:36:00,
2013-11-20 15:41:00,54.1,34.3,30.24,SE,132,4.0,7.0,47,0.00,,FEW120,0.00,VWS V14.01,2013-11-20 20:41:00,
2013-11-20 15:46:00,53.8,34.6,30.24,ENE,76,1.0,6.0,48,0.00,,FEW120,0.00,VWS V14.01,2013-11-20 20:46:00,
2013-11-20 15:51:00,54.1,35.4,30.25,SSE,147,0.0,8.0,49,0.00,,FEW120,0.00,VWS V14.01,2013-11-20 20:51:00,
2013-11-20 15:56:00,55.4,35.5,30.25,SE,146,0.0,2.0,47,0.00,,FEW120,0.00,VWS V14.01,2013-11-20 20:56:00,
2013-11-20 16:01:00,56.1,35.1,30.24,NNE,22,3.0,6.0,45,0.00,,BKN042,0.00,VWS V14.01,2013-11-20 21:01:00,
2013-11-20 16:06:00,55.7,34.7,30.25,NNE,32,2.0,9.0,45,0.00,,BKN042,0.00,VWS V14.01,2013-11-20 21:06:00,
2013-11-20 16:11:00,54.9,34.5,30.25,SE,131,1.0,6.0,46,0.00,,BKN042,0.00,VWS V14.01,2013-11-20 21:11:00,
2013-11-20 16:16:00,54.2,33.9,30.25,ENE,76,3.0,9.0,46,0.00,,BKN042,0.00,VWS V14.01,2013-11-20 21:16:00,
2013-11-20 16:21:00,53.8,34.6,30.25,NNE,12,2.0,7.0,48,0.00,,BKN042,0.00,VWS V14.01,2013-11-20 21:21:00,
2013-11-20 16:26:00,53.5,34.3,30.25,East,89,0.0,7.0,48,0.00,,BKN042,0.00,VWS V14.01,2013-11-20 21:26:00,
2013-11-20 16:31:00,53.3,34.7,30.25,NNE,23,0.0,8.0,49,0.00,,BKN042,0.00,VWS V14.01,2013-11-20 21:31:00,
2013-11-20 16:36:00,53.3,34.1,30.25,East,86,2.0,5.0,48,0.00,,BKN042,0.00,VWS V14.01,2013-11-20 21:36:00,
2013-11-20 16:41:00,53.2,34.0,30.26,East,93,5.0,7.0,48,0.00,,BKN042,0.00,VWS V14.01,2013-11-20 21:41:00,
2013-11-20 16:46:00,53.0,33.8,30.26,SSE,167,0.0,6.0,48,0.00,,BKN042,0.00,VWS V14.01,2013-11-20 21:46:00,
2013-11-20 16:51:00,52.8,34.7,30.26,ESE,104,2.0,3.0,50,0.00,,BKN042,0.00,VWS V14.01,2013-11-20 21:51:00,
2013-11-20 16:56:00,52.8,34.2,30.26,NNE,32,3.0,8.0,49,0.00,,BKN042,0.00,VWS V14.01,2013-11-20 21:56:00,
2013-11-20 17:01:00,52.7,34.1,30.26,ESE,102,0.0,9.0,49,0.00,,BKN042,0.00,VWS V14.01,2013-11-20 22:01:00,
2013-11-20 17:06:00,52.5,33.9,30.26,NE,36,4.0,7.0,49,0.00,,BKN042,0.00,VWS V14.01,2013-11-20 22:06:00,
2013-11-20 17:11:00,52.2,33.6,30.27,East,79,3.0,7.0,49,0.00,,BKN042,0.00,VWS V14.01,2013-11-20 22:11:00,
2013-11-20 17:16:00,52.0,34.0,30.27,ESE,113,1.0,9.0,50,0.00,,BKN042,0.00,VWS V14.01,2013-11-20 22:16:00,
2013-11-20 17:21:00,51.9,34.4,30.27,NE,54,0.0,5.0,51,0.00,,BKN042,0.00,VWS V14.01,2013-11-20 22:21:00,
2013-11-20 17:26:00,51.8,34.3,30.26,ENE,78,4.0,5.0,51,0.00,,BKN042,0.00,VWS V14.01,2013-11-20 22:26:00,
2013-11-20 17:31:00,51.7,33.7,30.27,SE,134,1.0,5.0,50,0.00,,BKN042,0.00,VWS V14.01,2013-11-20 22:31:00,
2013-11-20 17:36:00,51.6,33.6,30.27,SE,127,3.0,7.0,50,0.00,,BKN042,0.00,VWS V14.01,2013-11-20 22:36:00,
2013-11-20 17:41:00,51.3,33.8,30.27,ENE,63,1.0,10.0,51,0.00,,BKN042,0.00,VWS V14.01,2013-11-20 22:41:00,
2013-11-20 17:46:00,51.1,33.6,30.27,NNE,18,2.0,5.0,51,0.00,,BKN042,0.00,VWS V14.01,2013-11-20 22:46:00,
2013-11-20 17:51:00,50.8,33.8,30.27,NE,53,1.0,4.0,52,0.00,,BKN042,0.00,VWS V14.01,2013-11-20 22:51:00,
2013-11-20 17:56:00,50.6,33.6,30.27,ENE,76,0.0,3.0,52,0.00,,BKN042,0.00,VWS V14.01,2013-11-20 22:56:00,
2013-11-20 18:01:00,50.5,34.0,30.27,ENE,57,2.0,8.0,53,0.00,,BKN042,0.00,VWS V14.01,2013-11-20 23:01:00,
2013-11-20 18:06:00,50.4,33.5,30.27,East,80,2.0,7.0,52,0.00,,BKN042,0.00,VWS V14.01,2013-11-20 23:06:00,
2013-11-20 18:11:00,50.3,33.8,30.27,ENE,78,2.0,4.0,53,0.00,,SCT050,0.00,VWS V14.01,2013-11-20 23:11:00,
2013-11-20 18:16:00,50.1,33.7,30.28,ENE,66,0.0,4.0,53,0.00,,SCT050,0.00,VWS V14.01,2013-11-20 23:16:00,
2013-11-20 18:21:00,50.0,33.6,30.28,ENE,71,3.0,7.0,53,0.00,,SCT050,0.00,VWS V14.01,2013-11-20 23:21:00,
2013-11-20 18:26:00,50.0,33.6,30.28,ESE,120,0.0,10.0,53,0.00,,SCT050,0.00,VWS V14.01,2013-11-20 23:26:00,
2013-11-20 18:31:00,50.1,33.7,30.28,ESE,113,0.0,4.0,53,0.00,,SCT050,0.00,VWS V14.01,2013-11-20 23:31:00,
2013-11-20 18:36:00,50.1,33.7,30.29,ENE,57,3.0,7.0,53,0.00,,SCT050,0.00,VWS V14.01,2013-11-20 23:36:00,
2013-11-20 18:41:00,50.2,33.7,30.28,ESE,121,1.0,6.0,53,0.00,,SCT050,0.00,VWS V14.01,2013-11-20 23:41:00,
2013-11-20 18:46:00,50.3,33.4,30.29,East,79,2.0,9.0,52,0.00,,SCT050,0.00,VWS V14.01,2013-11-20 23:46:00,
2013-11-20 18:51:00,50.4,33.5,30.29,SE,146,1.0,6.0,52,0.00,,SCT050,0.00,VWS V14.01,2013-11-20 23:51:00,
2013-11-20 18:56:00,50.4,33.5,30.29,SE,139,1.0,6.0,52,0.00,,SCT050,0.00,VWS V14.01,2013-11-20 23:56:00,
2013-11-20 19:01:00,50.4,33.5,30.29,East,82,2.0,6.0,52,0.00,,OVC050,0.00,VWS V14.01,2013-11-21 00:01:00,
2013-11-20 19:06:00,50.4,33.5,30.29,ESE,109,1.0,7.0,52,0.00,,OVC050,0.00,VWS V14.01,2013-11-21 00:06:00,
2013-11-20 19:11:00,50.3,32.9,30.29,SE,124,2.0,12.0,51,0.00,,OVC050,0.00,VWS V14.01,2013-11-21 00:11:00,
2013-11-20 19:16:00,50.3,32.9,30.29,NNE,16,1.0,6.0,51,0.00,,OVC050,0.00,VWS V14.01,2013-11-21 00:16:00,
2013-11-20 19:21:00,50.3,33.4,30.30,SE,124,6.0,7.0,52,0.00,,OVC050,0.00,VWS V14.01,2013-11-21 00:21:00,
2013-11-20 19:26:00,50.3,32.9,30.30,SSE,152,0.0,7.0,51,0.00,,OVC050,0.00,VWS V14.01,2013-11-21 00:26:00,
2013-11-20 19:31:00,50.3,32.9,30.31,ESE,115,0.0,5.0,51,0.00,,OVC050,0.00,VWS V14.01,2013-11-21 00:31:00,
2013-11-20 19:36:00,50.3,32.9,30.31,SSE,167,4.0,8.0,51,0.00,,OVC050,0.00,VWS V14.01,2013-11-21 00:36:00,
2013-11-20 19:41:00,50.3,32.9,30.31,SE,130,0.0,6.0,51,0.00,,OVC050,0.00,VWS V14.01,2013-11-21 00:41:00,
2013-11-20 19:46:00,50.3,32.9,30.31,East,101,6.0,10.0,51,0.00,,OVC050,0.00,VWS V14.01,2013-11-21 00:46:00,
2013-11-20 19:51:00,50.3,32.9,30.31,ESE,117,1.0,8.0,51,0.00,,OVC050,0.00,VWS V14.01,2013-11-21 00:51:00,
2013-11-20 19:56:00,50.3,32.9,30.31,East,79,0.0,4.0,51,0.00,,OVC050,0.00,VWS V14.01,2013-11-21 00:56:00,
2013-11-20 20:01:00,50.3,33.4,30.31,ENE,69,4.0,6.0,52,0.00,,BKN035,0.00,VWS V14.01,2013-11-21 01:01:00,
2013-11-20 20:06:00,50.3,32.9,30.31,ENE,72,2.0,9.0,51,0.00,,BKN035,0.00,VWS V14.01,2013-11-21 01:06:00,
2013-11-20 20:11:00,50.3,32.9,30.31,ENE,63,6.0,9.0,51,0.00,,BKN035,0.00,VWS V14.01,2013-11-21 01:11:00,
2013-11-20 20:16:00,50.3,32.9,30.32,East,97,2.0,10.0,51,0.00,,BKN035,0.00,VWS V14.01,2013-11-21 01:16:00,
2013-11-20 20:21:00,50.3,32.9,30.32,East,96,1.0,6.0,51,0.00,,BKN035,0.00,VWS V14.01,2013-11-21 01:21:00,
2013-11-20 20:26:00,50.3,32.9,30.32,WNW,285,4.0,8.0,51,0.00,,BKN035,0.00,VWS V14.01,2013-11-21 01:26:00,
2013-11-20 20:31:00,50.4,33.0,30.32,SE,139,3.0,7.0,51,0.00,,BKN035,0.00,VWS V14.01,2013-11-21 01:31:00,
2013-11-20 20:36:00,50.4,33.0,30.32,SE,136,3.0,10.0,51,0.00,,BKN035,0.00,VWS V14.01,2013-11-21 01:36:00,
2013-11-20 20:41:00,50.4,33.0,30.32,SE,128,1.0,9.0,51,0.00,,BKN035,0.00,VWS V14.01,2013-11-21 01:41:00,
2013-11-20 20:46:00,50.4,33.0,30.32,East,86,3.0,8.0,51,0.00,,BKN035,0.00,VWS V14.01,2013-11-21 01:46:00,
2013-11-20 20:51:00,50.3,32.9,30.32,East,91,0.0,5.0,51,0.00,,BKN035,0.00,VWS V14.01,2013-11-21 01:51:00,
2013-11-20 20:56:00,50.4,33.5,30.32,ESE,104,3.0,11.0,52,0.00,,BKN035,0.00,VWS V14.01,2013-11-21 01:56:00,
2013-11-20 21:01:00,50.3,32.9,30.33,NNE,24,3.0,8.0,51,0.00,,BKN039,0.00,VWS V14.01,2013-11-21 02:01:00,
2013-11-20 21:06:00,50.3,33.4,30.32,East,96,0.0,5.0,52,0.00,,BKN039,0.00,VWS V14.01,2013-11-21 02:06:00,
2013-11-20 21:11:00,50.3,33.4,30.32,East,97,1.0,4.0,52,0.00,,BKN039,0.00,VWS V14.01,2013-11-21 02:11:00,
2013-11-20 21:16:00,50.3,33.8,30.33,East,98,1.0,6.0,53,0.00,,BKN039,0.00,VWS V14.01,2013-11-21 02:16:00,
2013-11-20 21:21:00,50.3,33.4,30.32,ESE,108,0.0,13.0,52,0.00,,BKN039,0.00,VWS V14.01,2013-11-21 02:21:00,
2013-11-20 21:26:00,50.2,33.3,30.33,SSE,150,3.0,12.0,52,0.00,,BKN039,0.00,VWS V14.01,2013-11-21 02:26:00,
2013-11-20 21:31:00,50.2,33.3,30.32,ESE,116,1.0,11.0,52,0.00,,BKN039,0.00,VWS V14.01,2013-11-21 02:31:00,
2013-11-20 21:36:00,50.2,33.3,30.32,ENE,73,7.0,14.0,52,0.00,,BKN039,0.00,VWS V14.01,2013-11-21 02:36:00,
2013-11-20 21:41:00,50.2,33.3,30.32,NE,47,4.0,7.0,52,0.00,,BKN039,0.00,VWS V14.01,2013-11-21 02:41:00,
2013-11-20 21:46:00,50.1,33.7,30.33,ENE,72,7.0,10.0,53,0.00,,BKN039,0.00,VWS V14.01,2013-11-21 02:46:00,
2013-11-20 21:51:00,50.2,33.7,30.33,North,349,0.0,5.0,53,0.00,,BKN039,0.00,VWS V14.01,2013-11-21 02:51:00,
2013-11-20 21:56:00,50.1,33.7,30.33,East,79,0.0,3.0,53,0.00,,BKN039,0.00,VWS V14.01,2013-11-21 02:56:00,
2013-11-20 22:01:00,50.1,34.1,30.33,SSW,192,0.0,6.0,54,0.00,,OVC029,0.00,VWS V14.01,2013-11-21 03:01:00,
2013-11-20 22:06:00,50.1,33.7,30.33,SE,134,1.0,7.0,53,0.00,,OVC029,0.00,VWS V14.01,2013-11-21 03:06:00,
2013-11-20 22:11:00,50.1,34.1,30.33,East,94,4.0,8.0,54,0.00,,OVC029,0.00,VWS V14.01,2013-11-21 03:11:00,
2013-11-20 22:16:00,50.1,33.7,30.33,SE,130,3.0,6.0,53,0.00,,OVC029,0.00,VWS V14.01,2013-11-21 03:16:00,
2013-11-20 22:21:00,50.1,33.7,30.34,ENE,74,0.0,9.0,53,0.00,,OVC029,0.00,VWS V14.01,2013-11-21 03:21:00,
2013-11-20 22:26:00,50.1,33.7,30.34,East,92,1.0,8.0,53,0.00,,OVC029,0.00,VWS V14.01,2013-11-21 03:26:00,
2013-11-20 22:31:00,50.1,34.1,30.34,ENE,77,2.0,6.0,54,0.00,,OVC029,0.00,VWS V14.01,2013-11-21 03:31:00,
2013-11-20 22:36:00,50.1,34.1,30.34,SW,221,1.0,12.0,54,0.00,,OVC029,0.00,VWS V14.01,2013-11-21 03:36:00,
2013-11-20 22:41:00,50.1,34.1,30.34,East,85,5.0,5.0,54,0.00,,OVC029,0.00,VWS V14.01,2013-11-21 03:41:00,
2013-11-20 22:46:00,50.1,34.1,30.35,SE,124,0.0,13.0,54,0.00,,OVC029,0.00,VWS V14.01,2013-11-21 03:46:00,
2013-11-20 22:51:00,50.1,34.1,30.35,WNW,295,2.0,12.0,54,0.00,,OVC029,0.00,VWS V14.01,2013-11-21 03:51:00,
2013-11-20 22:56:00,50.1,34.1,30.35,ENE,60,4.0,10.0,54,0.00,,OVC029,0.00,VWS V14.01,2013-11-21 03:56:00,
2013-11-20 23:01:00,50.1,34.6,30.35,ESE,120,4.0,9.0,55,0.00,,OVC025,0.00,VWS V14.01,2013-11-21 04:01:00,
2013-11-20 23:06:00,50.0,34.5,30.35,East,94,0.0,9.0,55,0.00,,OVC025,0.00,VWS V14.01,2013-11-21 04:06:00,
2013-11-20 23:11:00,50.0,34.5,30.35,East,79,3.0,5.0,55,0.00,,OVC025,0.00,VWS V14.01,2013-11-21 04:11:00,
2013-11-20 23:16:00,50.0,34.5,30.35,South,172,3.0,9.0,55,0.00,,OVC025,0.00,VWS V14.01,2013-11-21 04:16:00,
2013-11-20 23:21:00,50.0,34.5,30.35,East,91,1.0,8.0,55,0.00,,OVC025,0.00,VWS V14.01,2013-11-21 04:21:00,
2013-11-20 23:26:00,50.0,34.5,30.35,NNE,24,2.0,6.0,55,0.00,,OVC025,0.00,VWS V14.01,2013-11-21 04:26:00,
2013-11-20 23:31:00,50.0,34.9,30.35,ESE,106,0.0,9.0,56,0.00,,OVC025,0.00,VWS V14.01,2013-11-21 04:31:00,
2013-11-20 23:36:00,49.9,34.4,30.35,East,81,5.0,12.0,55,0.00,,OVC025,0.00,VWS V14.01,2013-11-21 04:36:00,
2013-11-20 23:41:00,49.9,34.8,30.35,SE,131,2.0,19.0,56,0.00,,OVC025,0.00,VWS V14.01,2013-11-21 04:41:00,
2013-11-20 23:46:00,49.8,34.8,30.35,ENE,71,3.0,9.0,56,0.00,,OVC025,0.00,VWS V14.01,2013-11-21 04:46:00,
2013-11-20 23:51:00,49.8,35.2,30.35,NE,35,1.0,6.0,57,0.00,,OVC025,0.00,VWS V14.01,2013-11-21 04:51:00,
2013-11-20 23:56:00,49.8,34.8,30.35,East,84,1.0,12.0,56,0.00,,OVC025,0.00,VWS V14.01,2013-11-21 04:56:00,